Time,TemperatureF,DewpointF,PressureIn,WindDirection,WindDirectionDegrees,WindSpeedMPH,WindSpeedGustMPH,Humidity,HourlyPrecipIn,Conditions,Clouds,dailyrainin,SoftwareType,DateUTC
2013-03-13 00:00:00,32.3,27.7,29.92,West,259,6.0,8.0,83,0.00,,,0.11,Wunderground v.1.15,2013-03-13 04:00:00,
2013-03-13 00:05:00,32.3,27.7,29.92,WSW,237,5.0,8.0,83,0.00,,,0.11,Wunderground v.1.15,2013-03-13 04:05:00,
2013-03-13 00:15:00,32.3,27.7,29.92,SW,232,5.0,8.0,83,0.00,,,0.11,Wunderground v.1.15,2013-03-13 04:15:00,
2013-03-13 00:20:00,32.2,27.3,29.91,SW,231,6.0,11.0,82,0.00,,,0.11,Wunderground v.1.15,2013-03-13 04:20:00,
2013-03-13 00:25:00,32.3,27.4,29.91,West,273,7.0,11.0,82,0.00,,,0.11,Wunderground v.1.15,2013-03-13 04:25:00,
2013-03-13 00:30:00,32.3,27.4,29.91,WSW,256,7.0,9.0,82,0.00,,,0.11,Wunderground v.1.15,2013-03-13 04:30:00,
2013-03-13 00:35:00,32.3,27.1,29.91,West,261,8.0,10.0,81,0.00,,,0.11,Wunderground v.1.15,2013-03-13 04:35:00,
2013-03-13 00:40:00,32.2,27.0,29.92,West,263,9.0,9.0,81,0.00,,,0.11,Wunderground v.1.15,2013-03-13 04:40:00,
2013-03-13 00:50:00,32.3,27.1,29.92,WSW,258,6.0,6.0,81,0.00,,,0.11,Wunderground v.1.15,2013-03-13 04:50:00,
2013-03-13 00:55:00,32.2,27.0,29.92,West,261,6.0,9.0,81,0.00,,,0.11,Wunderground v.1.15,2013-03-13 04:55:00,
2013-03-13 01:00:00,32.2,27.0,29.92,WSW,246,6.0,6.0,81,0.00,,,0.11,Wunderground v.1.15,2013-03-13 05:00:00,
2013-03-13 01:05:00,32.2,27.0,29.92,WSW,250,7.0,7.0,81,0.00,,,0.11,Wunderground v.1.15,2013-03-13 05:05:00,
2013-03-13 01:10:00,32.2,27.0,29.92,West,270,7.0,7.0,81,0.00,,,0.11,Wunderground v.1.15,2013-03-13 05:10:00,
2013-03-13 01:15:00,32.1,26.9,29.91,SW,221,6.0,8.0,81,0.00,,,0.11,Wunderground v.1.15,2013-03-13 05:15:00,
2013-03-13 01:25:00,32.1,26.9,29.91,WSW,246,5.0,8.0,81,0.00,,,0.11,Wunderground v.1.15,2013-03-13 05:25:00,
2013-03-13 01:35:00,32.2,27.0,29.91,West,272,6.0,9.0,81,0.00,,,0.00,Wunderground v.1.15,2013-03-13 05:35:00,
2013-03-13 01:40:00,32.2,27.0,29.91,West,260,6.0,6.0,81,0.00,,,0.00,Wunderground v.1.15,2013-03-13 05:40:00,
2013-03-13 01:45:00,32.2,26.7,29.91,SW,227,5.0,8.0,80,0.00,,,0.00,Wunderground v.1.15,2013-03-13 05:45:00,
2013-03-13 01:50:00,32.2,26.7,29.91,WSW,242,5.0,10.0,80,0.00,,,0.00,Wunderground v.1.15,2013-03-13 05:50:00,
2013-03-13 01:55:00,32.1,26.6,29.91,SW,222,6.0,10.0,80,0.00,,,0.00,Wunderground v.1.15,2013-03-13 05:55:00,
2013-03-13 02:00:00,32.1,26.6,29.91,WSW,258,6.0,6.0,80,0.00,,,0.00,Wunderground v.1.15,2013-03-13 06:00:00,
2013-03-13 02:10:00,32.0,26.8,29.91,SW,236,5.0,5.0,81,0.00,,,0.00,Wunderground v.1.15,2013-03-13 06:10:00,
2013-03-13 02:15:00,31.9,26.7,29.91,WSW,253,6.0,6.0,81,0.00,,,0.00,Wunderground v.1.15,2013-03-13 06:15:00,
2013-03-13 02:20:00,31.9,26.7,29.91,SW,227,6.0,8.0,81,0.00,,,0.00,Wunderground v.1.15,2013-03-13 06:20:00,
2013-03-13 02:25:00,31.9,26.7,29.91,WSW,243,5.0,8.0,81,0.00,,,0.00,Wunderground v.1.15,2013-03-13 06:25:00,
2013-03-13 02:30:00,31.9,26.4,29.90,SSW,211,5.0,8.0,80,0.00,,,0.00,Wunderground v.1.15,2013-03-13 06:30:00,
2013-03-13 02:35:00,31.9,26.4,29.90,SW,225,5.0,8.0,80,0.00,,,0.00,Wunderground v.1.15,2013-03-13 06:35:00,
2013-03-13 02:45:00,31.9,26.4,29.90,SW,219,4.0,8.0,80,0.00,,,0.00,Wunderground v.1.15,2013-03-13 06:45:00,
2013-03-13 02:50:00,31.8,26.3,29.90,SW,216,4.0,4.0,80,0.00,,,0.00,Wunderground v.1.15,2013-03-13 06:50:00,
2013-03-13 02:55:00,31.7,26.2,29.89,WSW,240,4.0,8.0,80,0.00,,,0.00,Wunderground v.1.15,2013-03-13 06:55:00,
2013-03-13 03:00:00,31.7,25.9,29.89,WSW,241,5.0,8.0,79,0.00,,,0.00,Wunderground v.1.15,2013-03-13 07:00:00,
2013-03-13 03:05:00,31.7,25.9,29.89,SW,220,6.0,11.0,79,0.00,,,0.00,Wunderground v.1.15,2013-03-13 07:05:00,
2013-03-13 03:10:00,31.8,26.0,29.89,WSW,254,6.0,8.0,79,0.00,,,0.00,Wunderground v.1.15,2013-03-13 07:10:00,
2013-03-13 03:15:00,31.7,25.9,29.89,SW,236,6.0,8.0,79,0.00,,,0.00,Wunderground v.1.15,2013-03-13 07:15:00,
2013-03-13 03:25:00,31.7,25.9,29.88,West,272,6.0,8.0,79,0.00,,,0.00,Wunderground v.1.15,2013-03-13 07:25:00,
2013-03-13 03:30:00,31.7,25.9,29.88,SW,234,6.0,6.0,79,0.00,,,0.00,Wunderground v.1.15,2013-03-13 07:30:00,
2013-03-13 03:35:00,31.6,26.1,29.88,SW,232,4.0,8.0,80,0.00,,,0.00,Wunderground v.1.15,2013-03-13 07:35:00,
2013-03-13 03:40:00,31.5,25.7,29.88,WSW,240,3.0,3.0,79,0.00,,,0.00,Wunderground v.1.15,2013-03-13 07:40:00,
2013-03-13 03:45:00,31.4,25.6,29.88,SW,227,3.0,8.0,79,0.00,,,0.00,Wunderground v.1.15,2013-03-13 07:45:00,
2013-03-13 03:55:00,31.4,25.3,29.87,WSW,252,5.0,8.0,78,0.00,,,0.00,Wunderground v.1.15,2013-03-13 07:55:00,
2013-03-13 04:00:00,31.4,25.3,29.87,WSW,243,4.0,4.0,78,0.00,,,0.00,Wunderground v.1.15,2013-03-13 08:00:00,
2013-03-13 04:05:00,31.4,25.3,29.87,WSW,242,3.0,8.0,78,0.00,,,0.00,Wunderground v.1.15,2013-03-13 08:05:00,
2013-03-13 04:10:00,31.3,25.2,29.87,SSW,207,3.0,8.0,78,0.00,,,0.00,Wunderground v.1.15,2013-03-13 08:10:00,
2013-03-13 04:15:00,31.4,25.0,29.87,WSW,246,5.0,8.0,77,0.00,,,0.00,Wunderground v.1.15,2013-03-13 08:15:00,
2013-03-13 04:20:00,31.5,25.4,29.87,WSW,240,5.0,5.0,78,0.00,,,0.00,Wunderground v.1.15,2013-03-13 08:20:00,
2013-03-13 04:30:00,31.4,25.0,29.86,West,261,3.0,8.0,77,0.00,,,0.00,Wunderground v.1.15,2013-03-13 08:30:00,
2013-03-13 04:35:00,31.4,25.0,29.86,WSW,246,4.0,8.0,77,0.00,,,0.00,Wunderground v.1.15,2013-03-13 08:35:00,
2013-03-13 04:40:00,31.4,25.0,29.86,West,275,4.0,4.0,77,0.00,,,0.00,Wunderground v.1.15,2013-03-13 08:40:00,
2013-03-13 04:45:00,31.3,24.9,29.86,West,259,3.0,8.0,77,0.00,,,0.00,Wunderground v.1.15,2013-03-13 08:45:00,
2013-03-13 04:50:00,31.4,25.0,29.86,WSW,238,4.0,8.0,77,0.00,,,0.00,Wunderground v.1.15,2013-03-13 08:50:00,
2013-03-13 04:55:00,31.4,25.0,29.86,SW,233,5.0,8.0,77,0.00,,,0.00,Wunderground v.1.15,2013-03-13 08:55:00,
2013-03-13 05:05:00,31.4,24.7,29.86,SSW,205,4.0,8.0,76,0.00,,,0.00,Wunderground v.1.15,2013-03-13 09:05:00,
2013-03-13 05:10:00,31.4,25.0,29.86,SW,234,5.0,9.0,77,0.00,,,0.00,Wunderground v.1.15,2013-03-13 09:10:00,
2013-03-13 05:15:00,31.3,24.9,29.86,SW,233,6.0,9.0,77,0.00,,,0.00,Wunderground v.1.15,2013-03-13 09:15:00,
2013-03-13 05:20:00,31.2,24.8,29.86,SW,235,5.0,5.0,77,0.00,,,0.00,Wunderground v.1.15,2013-03-13 09:20:00,
2013-03-13 05:25:00,31.2,24.8,29.86,WSW,253,5.0,8.0,77,0.00,,,0.00,Wunderground v.1.15,2013-03-13 09:25:00,
2013-03-13 05:30:00,31.1,24.7,29.86,SW,232,5.0,5.0,77,0.00,,,0.00,Wunderground v.1.15,2013-03-13 09:30:00,
2013-03-13 05:40:00,31.2,24.5,29.86,WSW,247,4.0,8.0,76,0.00,,,0.00,Wunderground v.1.15,2013-03-13 09:40:00,
2013-03-13 05:45:00,31.2,24.5,29.86,SW,223,4.0,8.0,76,0.00,,,0.00,Wunderground v.1.15,2013-03-13 09:45:00,
2013-03-13 05:50:00,31.1,24.7,29.86,SW,231,5.0,8.0,77,0.00,,,0.00,Wunderground v.1.15,2013-03-13 09:50:00,
2013-03-13 05:55:00,31.0,24.6,29.86,SW,234,5.0,8.0,77,0.00,,,0.00,Wunderground v.1.15,2013-03-13 09:55:00,
2013-03-13 06:00:00,30.9,24.5,29.85,SW,223,4.0,4.0,77,0.00,,,0.00,Wunderground v.1.15,2013-03-13 10:00:00,
2013-03-13 06:05:00,30.8,24.7,29.85,SW,232,4.0,8.0,78,0.00,,,0.00,Wunderground v.1.15,2013-03-13 10:05:00,
2013-03-13 06:10:00,30.6,24.6,29.85,SW,219,3.0,3.0,78,0.00,,,0.00,Wunderground v.1.15,2013-03-13 10:10:00,
2013-03-13 06:20:00,30.5,24.5,29.85,SW,232,3.0,8.0,78,0.00,,,0.00,Wunderground v.1.15,2013-03-13 10:20:00,
2013-03-13 06:25:00,30.5,24.5,29.86,SW,225,3.0,8.0,78,0.00,,,0.00,Wunderground v.1.15,2013-03-13 10:25:00,
2013-03-13 06:30:00,30.5,24.1,29.86,West,263,4.0,4.0,77,0.00,,,0.00,Wunderground v.1.15,2013-03-13 10:30:00,
2013-03-13 06:35:00,30.5,24.5,29.86,SW,229,4.0,8.0,78,0.00,,,0.00,Wunderground v.1.15,2013-03-13 10:35:00,
2013-03-13 06:40:00,30.3,24.3,29.86,WSW,246,4.0,8.0,78,0.00,,,0.00,Wunderground v.1.15,2013-03-13 10:40:00,
2013-03-13 06:45:00,30.3,24.3,29.86,SW,231,3.0,8.0,78,0.00,,,0.00,Wunderground v.1.15,2013-03-13 10:45:00,
2013-03-13 06:50:00,30.3,24.3,29.85,WSW,249,4.0,4.0,78,0.00,,,0.00,Wunderground v.1.15,2013-03-13 10:50:00,
2013-03-13 07:00:00,30.4,24.1,29.85,SW,228,3.0,8.0,77,0.00,,,0.00,Wunderground v.1.15,2013-03-13 11:00:00,
2013-03-13 07:05:00,30.5,24.1,29.85,SW,226,3.0,8.0,77,0.00,,,0.00,Wunderground v.1.15,2013-03-13 11:05:00,
2013-03-13 07:10:00,30.5,24.1,29.85,WSW,249,4.0,8.0,77,0.00,,,0.00,Wunderground v.1.15,2013-03-13 11:10:00,
2013-03-13 07:15:00,30.5,24.1,29.85,SW,227,4.0,8.0,77,0.00,,,0.00,Wunderground v.1.15,2013-03-13 11:15:00,
2013-03-13 07:20:00,30.4,24.1,29.85,SW,236,3.0,3.0,77,0.00,,,0.00,Wunderground v.1.15,2013-03-13 11:20:00,
2013-03-13 07:25:00,30.3,24.3,29.86,WSW,248,3.0,8.0,78,0.00,,,0.00,Wunderground v.1.15,2013-03-13 11:25:00,
2013-03-13 07:35:00,30.3,24.3,29.86,WSW,252,3.0,8.0,78,0.00,,,0.00,Wunderground v.1.15,2013-03-13 11:35:00,
2013-03-13 07:40:00,30.2,24.2,29.85,WSW,241,3.0,8.0,78,0.00,,,0.00,Wunderground v.1.15,2013-03-13 11:40:00,
2013-03-13 07:45:00,30.2,24.2,29.85,WSW,238,2.0,8.0,78,0.00,,,0.00,Wunderground v.1.15,2013-03-13 11:45:00,
2013-03-13 07:50:00,30.2,24.2,29.85,WSW,240,3.0,3.0,78,0.00,,,0.00,Wunderground v.1.15,2013-03-13 11:50:00,
2013-03-13 07:55:00,30.3,24.0,29.85,WSW,253,3.0,4.0,77,0.00,,,0.00,Wunderground v.1.15,2013-03-13 11:55:00,
2013-03-13 08:00:00,30.4,24.1,29.85,SW,223,4.0,4.0,77,0.00,,,0.00,Wunderground v.1.15,2013-03-13 12:00:00,
2013-03-13 08:05:00,30.5,24.5,29.85,WSW,241,4.0,9.0,78,0.00,,,0.00,Wunderground v.1.15,2013-03-13 12:05:00,
2013-03-13 08:15:00,30.7,24.3,29.85,SW,218,4.0,8.0,77,0.00,,,0.00,Wunderground v.1.15,2013-03-13 12:15:00,
2013-03-13 08:20:00,30.8,24.4,29.85,SW,232,5.0,5.0,77,0.00,,,0.00,Wunderground v.1.15,2013-03-13 12:20:00,
2013-03-13 08:25:00,30.9,24.5,29.85,WSW,248,4.0,8.0,77,0.00,,,0.00,Wunderground v.1.15,2013-03-13 12:25:00,
2013-03-13 08:30:00,31.0,24.6,29.85,SW,229,5.0,8.0,77,0.00,,,0.00,Wunderground v.1.15,2013-03-13 12:30:00,
2013-03-13 08:35:00,31.1,24.7,29.85,SW,227,6.0,8.0,77,0.00,,,0.00,Wunderground v.1.15,2013-03-13 12:35:00,
2013-03-13 08:40:00,31.2,24.8,29.85,SW,227,5.0,8.0,77,0.00,,,0.00,Wunderground v.1.15,2013-03-13 12:40:00,
2013-03-13 08:50:00,31.5,25.1,29.85,SSW,213,6.0,8.0,77,0.00,,,0.00,Wunderground v.1.15,2013-03-13 12:50:00,
2013-03-13 08:55:00,31.8,25.1,29.85,SW,231,6.0,8.0,76,0.00,,,0.00,Wunderground v.1.15,2013-03-13 12:55:00,
2013-03-13 09:00:00,31.9,25.2,29.85,West,281,6.0,9.0,76,0.00,,,0.00,Wunderground v.1.15,2013-03-13 13:00:00,
2013-03-13 09:05:00,32.0,25.3,29.85,SW,232,7.0,9.0,76,0.00,,,0.00,Wunderground v.1.15,2013-03-13 13:05:00,
2013-03-13 09:10:00,32.2,25.5,29.85,SW,217,7.0,8.0,76,0.00,,,0.00,Wunderground v.1.15,2013-03-13 13:10:00,
2013-03-13 09:15:00,32.5,25.5,29.85,SSW,202,7.0,8.0,75,0.00,,,0.00,Wunderground v.1.15,2013-03-13 13:15:00,
2013-03-13 09:25:00,32.4,25.4,29.85,West,259,8.0,8.0,75,0.00,,,0.00,Wunderground v.1.15,2013-03-13 13:25:00,
2013-03-13 09:30:00,32.7,25.6,29.84,SW,228,7.0,8.0,75,0.00,,,0.00,Wunderground v.1.15,2013-03-13 13:30:00,
2013-03-13 09:35:00,33.0,25.9,29.84,WSW,243,7.0,8.0,75,0.00,,,0.00,Wunderground v.1.15,2013-03-13 13:35:00,
2013-03-13 09:40:00,33.0,25.3,29.84,SW,228,8.0,8.0,73,0.00,,,0.00,Wunderground v.1.15,2013-03-13 13:40:00,
2013-03-13 09:45:00,33.1,25.7,29.84,SW,223,8.0,13.0,74,0.00,,,0.00,Wunderground v.1.15,2013-03-13 13:45:00,
2013-03-13 09:50:00,33.1,25.4,29.84,WSW,240,9.0,10.0,73,0.00,,,0.00,Wunderground v.1.15,2013-03-13 13:50:00,
2013-03-13 10:00:00,33.1,24.7,29.84,WSW,239,10.0,11.0,71,0.00,,,0.00,Wunderground v.1.15,2013-03-13 14:00:00,
2013-03-13 10:05:00,32.8,25.1,29.84,SW,215,10.0,11.0,73,0.00,,,0.00,Wunderground v.1.15,2013-03-13 14:05:00,
2013-03-13 10:10:00,32.8,26.1,29.84,WSW,255,10.0,10.0,76,0.00,,,0.00,Wunderground v.1.15,2013-03-13 14:10:00,
2013-03-13 10:15:00,32.6,26.5,29.84,SW,226,9.0,11.0,78,0.00,,,0.00,Wunderground v.1.15,2013-03-13 14:15:00,
2013-03-13 10:20:00,32.9,27.1,29.84,SW,223,8.0,8.0,79,0.00,,,0.00,Wunderground v.1.15,2013-03-13 14:20:00,
2013-03-13 10:25:00,33.1,26.7,29.84,West,265,7.0,11.0,77,0.00,,,0.00,Wunderground v.1.15,2013-03-13 14:25:00,
2013-03-13 10:30:00,33.0,26.6,29.84,SW,234,9.0,9.0,77,0.00,,,0.00,Wunderground v.1.15,2013-03-13 14:30:00,
2013-03-13 10:40:00,33.6,26.8,29.84,SW,233,7.0,11.0,76,0.00,,,0.00,Wunderground v.1.15,2013-03-13 14:40:00,
2013-03-13 10:45:00,33.6,26.2,29.84,West,259,7.0,11.0,74,0.00,,,0.00,Wunderground v.1.15,2013-03-13 14:45:00,
2013-03-13 10:50:00,33.8,26.7,29.84,West,272,9.0,9.0,75,0.00,,,0.00,Wunderground v.1.15,2013-03-13 14:50:00,
2013-03-13 10:55:00,34.4,27.3,29.84,SW,229,9.0,11.0,75,0.00,,,0.00,Wunderground v.1.15,2013-03-13 14:55:00,
2013-03-13 11:00:00,34.2,26.1,29.84,SW,234,9.0,13.0,72,0.00,,,0.00,Wunderground v.1.15,2013-03-13 15:00:00,
2013-03-13 11:05:00,33.9,25.8,29.84,SW,229,10.0,13.0,72,0.00,,,0.00,Wunderground v.1.15,2013-03-13 15:05:00,
2013-03-13 11:10:00,33.8,26.1,29.84,WSW,246,10.0,10.0,73,0.00,,,0.00,Wunderground v.1.15,2013-03-13 15:10:00,
2013-03-13 11:20:00,33.9,27.1,29.84,WSW,255,7.0,9.0,76,0.00,,,0.00,Wunderground v.1.15,2013-03-13 15:20:00,
2013-03-13 11:25:00,34.3,26.5,29.84,WSW,254,7.0,9.0,73,0.00,,,0.00,Wunderground v.1.15,2013-03-13 15:25:00,
2013-03-13 11:30:00,34.9,26.8,29.84,SW,216,7.0,11.0,72,0.00,,,0.00,Wunderground v.1.15,2013-03-13 15:30:00,
2013-03-13 11:35:00,34.7,26.3,29.84,WSW,246,9.0,11.0,71,0.00,,,0.00,Wunderground v.1.15,2013-03-13 15:35:00,
2013-03-13 11:40:00,34.5,25.4,29.84,West,259,10.0,10.0,69,0.00,,,0.00,Wunderground v.1.15,2013-03-13 15:40:00,
2013-03-13 11:50:00,35.5,27.0,29.84,SW,222,8.0,8.0,71,0.00,,,0.00,Wunderground v.1.15,2013-03-13 15:50:00,
2013-03-13 11:55:00,35.6,26.1,29.84,SW,228,7.0,8.0,68,0.00,,,0.00,Wunderground v.1.15,2013-03-13 15:55:00,
2013-03-13 12:00:00,35.3,26.1,29.84,WSW,242,9.0,10.0,69,0.00,,,0.00,Wunderground v.1.15,2013-03-13 16:00:00,
2013-03-13 12:05:00,35.3,26.5,29.84,West,259,10.0,14.0,70,0.00,,,0.00,Wunderground v.1.15,2013-03-13 16:05:00,
2013-03-13 12:10:00,32.6,26.5,29.84,WSW,252,12.0,17.0,78,0.00,,,0.00,Wunderground v.1.15,2013-03-13 16:10:00,
2013-03-13 12:15:00,30.8,27.7,29.85,WSW,257,13.0,17.0,88,0.00,,,0.00,Wunderground v.1.15,2013-03-13 16:15:00,
2013-03-13 12:20:00,30.3,28.0,29.85,WSW,254,11.0,16.0,91,0.00,,,0.00,Wunderground v.1.15,2013-03-13 16:20:00,
2013-03-13 12:30:00,29.8,28.3,29.85,WSW,245,8.0,8.0,94,0.00,,,0.00,Wunderground v.1.15,2013-03-13 16:30:00,
2013-03-13 12:35:00,29.9,28.4,29.85,WSW,240,5.0,8.0,94,0.00,,,0.00,Wunderground v.1.15,2013-03-13 16:35:00,
2013-03-13 12:40:00,30.2,28.9,29.85,SW,215,4.0,4.0,95,0.00,,,0.00,Wunderground v.1.15,2013-03-13 16:40:00,
2013-03-13 12:45:00,30.4,29.1,29.85,SW,215,3.0,6.0,95,0.00,,,0.00,Wunderground v.1.15,2013-03-13 16:45:00,
2013-03-13 12:50:00,30.5,29.0,29.85,WSW,246,4.0,9.0,94,0.00,,,0.00,Wunderground v.1.15,2013-03-13 16:50:00,
2013-03-13 12:55:00,30.7,28.9,29.85,WSW,245,6.0,9.0,93,0.00,,,0.00,Wunderground v.1.15,2013-03-13 16:55:00,
2013-03-13 13:00:00,30.7,28.4,29.85,SSW,211,9.0,12.0,91,0.00,,,0.00,Wunderground v.1.15,2013-03-13 17:00:00,
2013-03-13 13:05:00,30.9,27.8,29.85,SW,218,9.0,12.0,88,0.00,,,0.00,Wunderground v.1.15,2013-03-13 17:05:00,
2013-03-13 13:15:00,31.5,28.1,29.85,WSW,240,9.0,12.0,87,0.00,,,0.00,Wunderground v.1.15,2013-03-13 17:15:00,
2013-03-13 13:20:00,31.5,28.4,29.85,West,269,8.0,8.0,88,0.00,,,0.00,Wunderground v.1.15,2013-03-13 17:20:00,
2013-03-13 13:25:00,31.6,27.9,29.85,SW,224,8.0,14.0,86,0.00,,,0.00,Wunderground v.1.15,2013-03-13 17:25:00,
2013-03-13 13:30:00,31.7,28.0,29.85,SSW,207,9.0,9.0,86,0.00,,,0.00,Wunderground v.1.15,2013-03-13 17:30:00,
2013-03-13 13:35:00,32.0,28.0,29.84,SSW,198,10.0,10.0,85,0.00,,,0.00,Wunderground v.1.15,2013-03-13 17:35:00,
2013-03-13 13:40:00,32.9,28.0,29.84,West,261,9.0,9.0,82,0.00,,,0.00,Wunderground v.1.15,2013-03-13 17:40:00,
2013-03-13 13:50:00,33.0,27.2,29.84,SW,219,13.0,14.0,79,0.00,,,0.00,Wunderground v.1.15,2013-03-13 17:50:00,
2013-03-13 13:55:00,32.1,27.5,29.84,West,265,13.0,14.0,83,0.00,,,0.00,Wunderground v.1.15,2013-03-13 17:55:00,
2013-03-13 14:00:00,32.2,27.9,29.84,WSW,250,12.0,20.0,84,0.00,,,0.00,Wunderground v.1.15,2013-03-13 18:00:00,
2013-03-13 14:05:00,32.9,28.0,29.83,SW,220,13.0,20.0,82,0.00,,,0.01,Wunderground v.1.15,2013-03-13 18:05:00,
2013-03-13 14:10:00,33.4,27.9,29.83,SW,223,12.0,13.0,80,0.00,,,0.01,Wunderground v.1.15,2013-03-13 18:10:00,
2013-03-13 14:15:00,33.1,27.3,29.84,West,263,11.0,15.0,79,0.00,,,0.01,Wunderground v.1.15,2013-03-13 18:15:00,
2013-03-13 14:20:00,32.4,26.9,29.84,West,267,14.0,14.0,80,0.00,,,0.01,Wunderground v.1.15,2013-03-13 18:20:00,
2013-03-13 14:30:00,32.1,26.0,29.84,West,269,13.0,13.0,78,0.00,,,0.01,Wunderground v.1.15,2013-03-13 18:30:00,
2013-03-13 14:35:00,32.6,27.4,29.84,WSW,252,14.0,17.0,81,0.00,,,0.01,Wunderground v.1.15,2013-03-13 18:35:00,
2013-03-13 14:40:00,32.7,26.6,29.84,West,275,14.0,21.0,78,0.00,,,0.01,Wunderground v.1.15,2013-03-13 18:40:00,
2013-03-13 14:45:00,32.3,25.9,29.84,West,273,16.0,21.0,77,0.00,,,0.01,Wunderground v.1.15,2013-03-13 18:45:00,
2013-03-13 14:50:00,32.3,26.2,29.84,West,267,16.0,16.0,78,0.00,,,0.01,Wunderground v.1.15,2013-03-13 18:50:00,
2013-03-13 14:55:00,31.8,25.1,29.84,WSW,247,15.0,19.0,76,0.00,,,0.01,Wunderground v.1.15,2013-03-13 18:55:00,
2013-03-13 15:05:00,32.4,26.3,29.85,WSW,248,13.0,18.0,78,0.00,,,0.01,Wunderground v.1.15,2013-03-13 19:05:00,
2013-03-13 15:10:00,32.3,25.6,29.85,WSW,253,13.0,13.0,76,0.00,,,0.01,Wunderground v.1.15,2013-03-13 19:10:00,
2013-03-13 15:15:00,32.5,24.8,29.85,West,260,13.0,22.0,73,0.00,,,0.01,Wunderground v.1.15,2013-03-13 19:15:00,
2013-03-13 15:20:00,32.3,24.3,29.85,WSW,244,15.0,15.0,72,0.00,,,0.01,Wunderground v.1.15,2013-03-13 19:20:00,
2013-03-13 15:25:00,32.4,24.4,29.85,WSW,252,15.0,15.0,72,0.00,,,0.01,Wunderground v.1.15,2013-03-13 19:25:00,
2013-03-13 15:30:00,32.0,23.7,29.85,West,259,13.0,18.0,71,0.00,,,0.01,Wunderground v.1.15,2013-03-13 19:30:00,
2013-03-13 15:40:00,31.5,22.5,29.85,West,269,14.0,17.0,69,0.00,,,0.01,Wunderground v.1.15,2013-03-13 19:40:00,
2013-03-13 15:45:00,31.5,22.1,29.86,West,266,14.0,18.0,68,0.00,,,0.01,Wunderground v.1.15,2013-03-13 19:45:00,
2013-03-13 15:50:00,31.5,21.8,29.86,WSW,257,14.0,16.0,67,0.00,,,0.01,Wunderground v.1.15,2013-03-13 19:50:00,
2013-03-13 15:55:00,31.7,22.3,29.86,West,272,12.0,16.0,68,0.00,,,0.01,Wunderground v.1.15,2013-03-13 19:55:00,
2013-03-13 16:00:00,31.7,22.0,29.86,West,271,11.0,11.0,67,0.00,,,0.01,Wunderground v.1.15,2013-03-13 20:00:00,
2013-03-13 16:05:00,31.7,23.0,29.86,West,267,11.0,11.0,70,0.00,,,0.01,Wunderground v.1.15,2013-03-13 20:05:00,
2013-03-13 16:10:00,31.7,22.3,29.86,West,279,11.0,11.0,68,0.00,,,0.01,Wunderground v.1.15,2013-03-13 20:10:00,
2013-03-13 16:20:00,31.2,22.2,29.87,West,265,13.0,13.0,69,0.00,,,0.01,Wunderground v.1.15,2013-03-13 20:20:00,
2013-03-13 16:25:00,31.6,23.6,29.87,NW,312,12.0,18.0,72,0.00,,,0.01,Wunderground v.1.15,2013-03-13 20:25:00,
2013-03-13 16:30:00,31.4,22.7,29.87,West,269,12.0,12.0,70,0.00,,,0.01,Wunderground v.1.15,2013-03-13 20:30:00,
2013-03-13 16:35:00,31.3,22.6,29.87,SW,223,14.0,19.0,70,0.00,,,0.01,Wunderground v.1.15,2013-03-13 20:35:00,
2013-03-13 16:40:00,31.2,23.2,29.87,WNW,290,14.0,14.0,72,0.00,,,0.01,Wunderground v.1.15,2013-03-13 20:40:00,
2013-03-13 16:45:00,31.6,22.9,29.87,WSW,244,14.0,14.0,70,0.00,,,0.01,Wunderground v.1.15,2013-03-13 20:45:00,
2013-03-13 16:55:00,30.6,22.3,29.88,West,262,14.0,17.0,71,0.00,,,0.01,Wunderground v.1.15,2013-03-13 20:55:00,
2013-03-13 17:00:00,30.6,20.2,29.88,SW,236,15.0,19.0,65,0.00,,,0.01,Wunderground v.1.15,2013-03-13 21:00:00,
2013-03-13 17:05:00,30.8,20.4,29.88,WSW,258,16.0,19.0,65,0.00,,,0.01,Wunderground v.1.15,2013-03-13 21:05:00,
2013-03-13 17:10:00,30.7,21.0,29.88,West,277,14.0,14.0,67,0.00,,,0.01,Wunderground v.1.15,2013-03-13 21:10:00,
2013-03-13 17:15:00,30.4,21.4,29.88,West,266,12.0,17.0,69,0.00,,,0.01,Wunderground v.1.15,2013-03-13 21:15:00,
2013-03-13 17:20:00,29.8,22.5,29.89,West,265,13.0,16.0,74,0.00,,,0.01,Wunderground v.1.15,2013-03-13 21:20:00,
2013-03-13 17:30:00,28.1,23.9,29.89,WSW,255,14.0,19.0,84,0.00,,,0.01,Wunderground v.1.15,2013-03-13 21:30:00,
2013-03-13 17:35:00,28.6,23.2,29.89,WSW,248,12.0,19.0,80,0.00,,,0.01,Wunderground v.1.15,2013-03-13 21:35:00,
2013-03-13 17:40:00,29.0,22.4,29.90,WSW,257,11.0,11.0,76,0.00,,,0.01,Wunderground v.1.15,2013-03-13 21:40:00,
2013-03-13 17:45:00,29.0,20.8,29.90,WSW,237,12.0,12.0,71,0.00,,,0.01,Wunderground v.1.15,2013-03-13 21:45:00,
2013-03-13 17:50:00,28.4,19.2,29.90,West,259,14.0,19.0,68,0.00,,,0.01,Wunderground v.1.15,2013-03-13 21:50:00,
2013-03-13 17:55:00,28.4,19.2,29.90,West,262,15.0,19.0,68,0.00,,,0.01,Wunderground v.1.15,2013-03-13 21:55:00,
2013-03-13 18:00:00,28.5,18.6,29.90,West,261,13.0,19.0,66,0.00,,,0.01,Wunderground v.1.15,2013-03-13 22:00:00,
2013-03-13 18:10:00,28.6,16.1,29.90,WSW,244,15.0,16.0,59,0.00,,,0.01,Wunderground v.1.15,2013-03-13 22:10:00,
2013-03-13 18:15:00,28.4,17.0,29.90,SW,225,16.0,16.0,62,0.00,,,0.01,Wunderground v.1.15,2013-03-13 22:15:00,
2013-03-13 18:20:00,28.2,16.8,29.90,WSW,251,13.0,13.0,62,0.00,,,0.01,Wunderground v.1.15,2013-03-13 22:20:00,
2013-03-13 18:25:00,28.0,16.6,29.90,SW,223,13.0,13.0,62,0.00,,,0.01,Wunderground v.1.15,2013-03-13 22:25:00,
2013-03-13 18:30:00,27.9,17.3,29.90,WSW,254,15.0,15.0,64,0.00,,,0.01,Wunderground v.1.15,2013-03-13 22:30:00,
2013-03-13 18:40:00,27.1,19.6,29.91,SW,235,13.0,18.0,73,0.00,,,0.01,Wunderground v.1.15,2013-03-13 22:40:00,
2013-03-13 18:45:00,26.3,20.7,29.92,West,272,14.0,18.0,79,0.00,,,0.01,Wunderground v.1.15,2013-03-13 22:45:00,
2013-03-13 18:50:00,25.5,21.6,29.91,WSW,257,14.0,14.0,85,0.00,,,0.01,Wunderground v.1.15,2013-03-13 22:50:00,
2013-03-13 18:55:00,25.4,21.5,29.91,WSW,244,12.0,14.0,85,0.00,,,0.01,Wunderground v.1.15,2013-03-13 22:55:00,
2013-03-13 19:00:00,25.8,21.3,29.91,WSW,242,10.0,23.0,83,0.00,,,0.01,Wunderground v.1.15,2013-03-13 23:00:00,
2013-03-13 19:05:00,25.8,20.5,29.92,West,281,12.0,23.0,80,0.00,,,0.01,Wunderground v.1.15,2013-03-13 23:05:00,
2013-03-13 19:10:00,25.8,20.5,29.92,West,264,15.0,15.0,80,0.00,,,0.01,Wunderground v.1.15,2013-03-13 23:10:00,
2013-03-13 19:20:00,25.7,20.1,29.92,WSW,250,11.0,14.0,79,0.00,,,0.01,Wunderground v.1.15,2013-03-13 23:20:00,
2013-03-13 19:25:00,25.6,19.4,29.92,West,260,11.0,14.0,77,0.00,,,0.01,Wunderground v.1.15,2013-03-13 23:25:00,
2013-03-13 19:30:00,25.6,19.4,29.92,WSW,238,12.0,12.0,77,0.00,,,0.01,Wunderground v.1.15,2013-03-13 23:30:00,
2013-03-13 19:35:00,25.6,19.4,29.92,SW,227,11.0,12.0,77,0.00,,,0.01,Wunderground v.1.15,2013-03-13 23:35:00,
2013-03-13 19:40:00,25.5,18.7,29.92,WSW,239,11.0,13.0,75,0.00,,,0.01,Wunderground v.1.15,2013-03-13 23:40:00,
2013-03-13 19:45:00,25.4,18.6,29.92,WSW,258,13.0,13.0,75,0.00,,,0.01,Wunderground v.1.15,2013-03-13 23:45:00,
2013-03-13 19:50:00,25.4,18.3,29.92,West,272,13.0,13.0,74,0.00,,,0.01,Wunderground v.1.15,2013-03-13 23:50:00,
2013-03-13 20:00:00,25.3,19.4,29.93,WSW,258,9.0,9.0,78,0.00,,,0.01,Wunderground v.1.15,2013-03-14 00:00:00,
2013-03-13 20:05:00,24.5,20.4,29.93,West,263,9.0,9.0,84,0.00,,,0.01,Wunderground v.1.15,2013-03-14 00:05:00,
2013-03-13 20:10:00,24.0,21.0,29.93,West,267,8.0,9.0,88,0.00,,,0.01,Wunderground v.1.15,2013-03-14 00:10:00,
2013-03-13 20:15:00,23.9,20.9,29.93,WSW,254,7.0,9.0,88,0.00,,,0.01,Wunderground v.1.15,2013-03-14 00:15:00,
2013-03-13 20:25:00,24.3,19.6,29.93,West,265,8.0,12.0,82,0.00,,,0.01,Wunderground v.1.15,2013-03-14 00:25:00,
2013-03-13 20:30:00,24.4,20.0,29.93,WSW,242,8.0,8.0,83,0.00,,,0.01,Wunderground v.1.15,2013-03-14 00:30:00,
2013-03-13 20:35:00,24.4,20.0,29.93,WSW,247,8.0,9.0,83,0.00,,,0.01,Wunderground v.1.15,2013-03-14 00:35:00,
2013-03-13 20:40:00,24.4,19.7,29.93,SW,227,8.0,10.0,82,0.00,,,0.01,Wunderground v.1.15,2013-03-14 00:40:00,
2013-03-13 20:45:00,24.5,19.5,29.93,West,278,9.0,13.0,81,0.00,,,0.01,Wunderground v.1.15,2013-03-14 00:45:00,
2013-03-13 20:50:00,24.4,19.1,29.93,West,272,10.0,10.0,80,0.00,,,0.01,Wunderground v.1.15,2013-03-14 00:50:00,
2013-03-13 20:55:00,24.5,19.2,29.93,West,271,10.0,10.0,80,0.00,,,0.01,Wunderground v.1.15,2013-03-14 00:55:00,
2013-03-13 21:05:00,24.3,19.9,29.94,West,267,10.0,18.0,83,0.00,,,0.01,Wunderground v.1.15,2013-03-14 01:05:00,
2013-03-13 21:10:00,24.1,20.2,29.94,WSW,253,9.0,9.0,85,0.00,,,0.01,Wunderground v.1.15,2013-03-14 01:10:00,
2013-03-13 21:15:00,23.7,20.1,29.94,West,276,9.0,9.0,86,0.00,,,0.01,Wunderground v.1.15,2013-03-14 01:15:00,
2013-03-13 21:20:00,23.6,20.3,29.94,West,265,10.0,10.0,87,0.00,,,0.01,Wunderground v.1.15,2013-03-14 01:20:00,
2013-03-13 21:25:00,23.4,20.4,29.95,SW,236,10.0,16.0,88,0.00,,,0.01,Wunderground v.1.15,2013-03-14 01:25:00,
2013-03-13 21:30:00,23.1,19.3,29.95,West,265,14.0,15.0,85,0.00,,,0.01,Wunderground v.1.15,2013-03-14 01:30:00,
2013-03-13 21:40:00,23.5,18.5,29.95,West,266,14.0,14.0,81,0.00,,,0.01,Wunderground v.1.15,2013-03-14 01:40:00,
2013-03-13 21:45:00,23.6,18.3,29.95,West,266,13.0,18.0,80,0.00,,,0.01,Wunderground v.1.15,2013-03-14 01:45:00,
2013-03-13 21:50:00,23.6,18.0,29.95,WSW,247,13.0,13.0,79,0.00,,,0.01,Wunderground v.1.15,2013-03-14 01:50:00,
2013-03-13 21:55:00,23.7,17.8,29.95,WSW,253,13.0,13.0,78,0.00,,,0.01,Wunderground v.1.15,2013-03-14 01:55:00,
2013-03-13 22:00:00,23.6,17.4,29.95,WSW,246,13.0,13.0,77,0.00,,,0.01,Wunderground v.1.15,2013-03-14 02:00:00,
2013-03-13 22:10:00,23.5,17.6,29.95,WSW,254,14.0,14.0,78,0.00,,,0.01,Wunderground v.1.15,2013-03-14 02:10:00,
2013-03-13 22:15:00,23.5,17.6,29.95,West,265,13.0,14.0,78,0.00,,,0.01,Wunderground v.1.15,2013-03-14 02:15:00,
2013-03-13 22:20:00,23.6,17.4,29.95,West,267,13.0,15.0,77,0.00,,,0.01,Wunderground v.1.15,2013-03-14 02:20:00,
2013-03-13 22:25:00,23.6,17.7,29.95,West,267,13.0,15.0,78,0.00,,,0.01,Wunderground v.1.15,2013-03-14 02:25:00,
2013-03-13 22:30:00,23.6,17.7,29.95,West,265,13.0,13.0,78,0.00,,,0.01,Wunderground v.1.15,2013-03-14 02:30:00,
2013-03-13 22:35:00,23.6,17.7,29.95,WSW,258,12.0,14.0,78,0.00,,,0.01,Wunderground v.1.15,2013-03-14 02:35:00,
2013-03-13 22:40:00,23.6,18.0,29.95,West,271,13.0,13.0,79,0.00,,,0.01,Wunderground v.1.15,2013-03-14 02:40:00,
2013-03-13 22:50:00,23.5,19.1,29.95,West,263,10.0,10.0,83,0.00,,,0.01,Wunderground v.1.15,2013-03-14 02:50:00,
2013-03-13 22:55:00,23.4,19.0,29.95,West,263,11.0,16.0,83,0.00,,,0.01,Wunderground v.1.15,2013-03-14 02:55:00,
2013-03-13 23:00:00,23.4,19.0,29.95,WSW,258,12.0,13.0,83,0.00,,,0.01,Wunderground v.1.15,2013-03-14 03:00:00,
2013-03-13 23:05:00,23.5,19.4,29.95,West,265,11.0,13.0,84,0.00,,,0.01,Wunderground v.1.15,2013-03-14 03:05:00,
2013-03-13 23:10:00,23.4,19.3,29.95,West,275,11.0,11.0,84,0.00,,,0.01,Wunderground v.1.15,2013-03-14 03:10:00,
2013-03-13 23:15:00,23.5,19.4,29.95,West,272,15.0,15.0,84,0.00,,,0.01,Wunderground v.1.15,2013-03-14 03:15:00,
2013-03-13 23:20:00,22.1,19.1,29.96,WNW,292,16.0,16.0,88,0.00,,,0.01,Wunderground v.1.15,2013-03-14 03:20:00,
2013-03-13 23:30:00,21.1,18.6,29.95,WNW,285,16.0,21.0,90,0.00,,,0.01,Wunderground v.1.15,2013-03-14 03:30:00,
2013-03-13 23:35:00,21.1,18.9,29.95,WNW,286,16.0,21.0,91,0.00,,,0.01,Wunderground v.1.15,2013-03-14 03:35:00,
2013-03-13 23:40:00,21.1,18.9,29.96,West,278,14.0,14.0,91,0.00,,,0.01,Wunderground v.1.15,2013-03-14 03:40:00,
2013-03-13 23:45:00,20.8,18.6,29.96,NW,325,12.0,14.0,91,0.00,,,0.01,Wunderground v.1.15,2013-03-14 03:45:00,
2013-03-13 23:50:00,20.6,18.1,29.96,West,277,12.0,12.0,90,0.00,,,0.01,Wunderground v.1.15,2013-03-14 03:50:00,
2013-03-13 23:55:00,20.5,18.3,29.96,WNW,284,11.0,14.0,91,0.00,,,0.01,Wunderground v.1.15,2013-03-14 03:55:00,